"2010-03-13 00:00:00",1757079,9.65,112.9,6.168,1.353,9.6,103.3869,7.946,9.15,25.51,0,110.2,13.34,8.73,74.9
"2010-03-13 00:00:30",1757080,8.74,111.9,6.293,1.057,8.99,103.3852,7.942,9.13,25.44,0,110.2,13.34,8.72,73.9
"2010-03-13 00:01:00",1757081,9,118.8,8.03,1.199,10.54,103.385,7.941,9.22,25.69,0,110.2,13.34,8.72,80.8
"2010-03-13 00:01:30",1757082,9.2,115.6,6.087,1.194,11.24,103.3742,7.914,9.22,25.9,0,110.2,13.34,8.69,77.6
"2010-03-13 00:02:00",1757083,9.35,113.8,7.812,1.251,10.77,103.3528,7.859,9.15,25.66,0,110.2,13.34,8.64,75.8
"2010-03-13 00:02:30",1757084,9.97,111.7,7.774,1.103,11.1,103.3514,7.856,9.22,25.83,0,110.1,13.34,8.64,73.7
"2010-03-13 00:03:00",1757085,8.9,112.8,8.4,1.456,9.61,103.3514,7.856,9.08,25.88,0,110.2,13.34,8.64,74.8
"2010-03-13 00:03:30",1757086,8.18,106.1,7.234,1.056,8.57,103.3412,7.83,9.04,26,0,110.1,13.34,8.61,68.1
"2010-03-13 00:04:00",1757087,8.94,114.6,6.854,1.285,10.74,103.3187,7.772,9.1,26.32,0,110.2,13.34,8.55,76.6
"2010-03-13 00:04:30",1757088,8.87,120.5,8.53,1.378,11.23,103.3181,7.771,9.12,26.5,0,110.2,13.34,8.55,82.5
"2010-03-13 00:05:00",1757089,9.04,119.9,5.948,1.292,10.5,103.319,7.773,8.98,26.43,0,110.1,13.34,8.55,81.9
"2010-03-13 00:05:30",1757090,8.6,116.9,7.069,1.261,10.25,103.3196,7.774,9.12,26.56,0,110.1,13.34,8.55,78.9
"2010-03-13 00:06:00",1757091,8.96,113.7,9.09,1.448,9.61,103.3115,7.754,8.93,26.4,0,110.1,13.34,8.53,75.7
"2010-03-13 00:06:30",1757092,7.875,113.4,3.786,0.284,7.009,103.3005,7.726,8.89,26.39,0,110.1,13.37,8.50,75.4
"2010-03-13 00:07:00",1757093,9.68,121.9,7.171,1.411,10.78,103.291,7.701,9.04,26.63,0,110.1,13.34,8.48,83.9
"2010-03-13 00:07:30",1757094,10.66,116.3,7.943,1.237,10.88,103.2939,7.709,9.01,26.69,0,110.1,13.34,8.49,78.3
"2010-03-13 00:08:00",1757095,9.56,124.5,5.559,1.175,11.57,103.2888,7.696,8.99,26.74,0,110.1,13.33,8.47,86.5
"2010-03-13 00:08:30",1757096,9.02,115.7,7.392,1.532,10.54,103.271,7.65,9,26.84,0,110.2,13.34,8.43,77.7
"2010-03-13 00:09:00",1757097,8.08,102.2,7.432,1.439,8.95,103.2635,7.631,8.92,26.83,0,110.1,13.34,8.41,64.2
"2010-03-13 00:09:30",1757098,7.931,103.9,8.38,1.043,8.2,103.2656,7.636,8.74,26.64,0,110.1,13.34,8.42,65.9
"2010-03-13 00:10:00",1757099,8.65,116.6,7.648,1.303,10.75,103.2702,7.648,8.92,27.01,0,110,13.34,8.43,78.6
"2010-03-13 00:10:30",1757100,9.56,112.8,10.09,1.053,10.98,103.2728,7.655,8.85,26.96,0,110.1,13.34,8.43,74.8
"2010-03-13 00:11:00",1757101,9.5,111.4,8.66,1.176,11.33,103.2732,7.656,8.91,27.02,0,110.2,13.34,8.43,73.4
"2010-03-13 00:11:30",1757102,8.81,115.4,7.368,1.244,10.45,103.2495,7.595,8.93,27,0,110.1,13.34,8.37,77.4
"2010-03-13 00:12:00",1757103,9.56,117.6,6.074,1.162,9.33,103.2463,7.587,8.73,26.82,0,110.1,13.34,8.37,79.6
"2010-03-13 00:12:30",1757104,8.77,115.3,10.48,1.185,8.59,103.2483,7.592,8.67,26.86,0,110.1,13.34,8.37,77.3
"2010-03-13 00:13:00",1757105,10.65,122.4,5.456,1.15,10.38,103.2477,7.591,8.85,27.13,0,110.1,13.34,8.37,84.4
"2010-03-13 00:13:30",1757106,9.78,125.8,6.092,1.275,11.18,103.2469,7.589,8.82,27.17,0,110.1,13.35,8.37,87.8
"2010-03-13 00:14:00",1757107,9.82,133.7,4.355,0.922,11.7,103.2328,7.553,8.93,27.33,0,110.1,13.35,8.33,95.7
"2010-03-13 00:14:30",1757108,9.88,126.4,6.03,1.21,10.92,103.219,7.517,8.79,27.33,0,110.1,13.35,8.30,88.4
"2010-03-13 00:15:00",1757109,8.1,116.2,6.623,0.804,8.32,103.2168,7.512,8.78,27.37,0,110.1,13.35,8.29,78.2
"2010-03-13 00:15:30",1757110,6.869,113.2,3.463,0.276,7.011,103.2171,7.512,8.56,27.22,0,110.1,13.38,8.29,75.2
"2010-03-13 00:16:00",1757111,8.13,121.4,8.44,1.207,9.93,103.2171,7.512,8.77,27.33,0,110.1,13.35,8.29,83.4
"2010-03-13 00:16:30",1757112,9.46,122.3,6.062,1.285,10.83,103.2134,7.503,8.76,27.22,0,110.1,13.35,8.28,84.3
"2010-03-13 00:17:00",1757113,9.15,119.5,6.834,1.278,10.75,103.1939,7.453,8.79,27.22,0,110.1,13.35,8.23,81.5
"2010-03-13 00:17:30",1757114,9.17,117.5,6.646,1.207,10.22,103.1832,7.426,8.69,27.18,0,110.1,13.35,8.20,79.5
"2010-03-13 00:18:00",1757115,8.05,113.1,6.817,1.193,8.23,103.1832,7.426,8.55,27.03,0,110.1,13.35,8.20,75.1
"2010-03-13 00:18:30",1757116,8.03,110.2,4.356,1.068,8.76,103.1832,7.426,8.5,26.98,0,110.1,13.35,8.20,72.2
"2010-03-13 00:19:00",1757117,8.66,113.5,6.859,1.236,9.7,103.1821,7.423,8.63,27.24,0,110.1,13.35,8.20,75.5
"2010-03-13 00:19:30",1757118,8.33,111.9,6.259,1.226,10.85,103.1713,7.395,8.71,27.38,0,110.1,13.35,8.17,73.9
"2010-03-13 00:20:00",1757119,9.16,118.9,7.097,1.076,10.21,103.1536,7.35,8.58,27.35,0,110.1,13.35,8.13,80.9
"2010-03-13 00:20:30",1757120,9.75,116.7,5.46,1.025,11.09,103.1493,7.339,8.67,27.4,0,110.1,13.35,8.12,78.7
"2010-03-13 00:21:00",1757121,9.46,115.5,5.992,0.993,10.26,103.1493,7.339,8.57,27.3,0,110.1,13.35,8.12,77.5
"2010-03-13 00:21:30",1757122,8.15,110,5.684,1,8.01,103.1493,7.339,8.53,27.31,0,110.1,13.35,8.12,72.0
"2010-03-13 00:22:00",1757123,9.57,114.4,6.47,1.162,10.77,103.1493,7.339,8.63,27.42,0,110.1,13.35,8.12,76.4
"2010-03-13 00:22:30",1757124,9.18,112.7,5.747,1.253,10.82,103.146,7.331,8.56,27.37,0,110.1,13.35,8.11,74.7
"2010-03-13 00:23:00",1757125,9.1,113.6,7.354,1.309,10.62,103.127,7.282,8.63,27.51,0,110.1,13.35,8.06,75.6
"2010-03-13 00:23:30",1757126,10.19,117.9,6.198,1.092,10.96,103.1158,7.253,8.61,27.56,0,110.1,13.35,8.03,79.9
"2010-03-13 00:24:00",1757127,9.34,115.3,7.473,1.232,9.32,103.1155,7.253,8.44,27.46,0,110.1,13.35,8.03,77.3
"2010-03-13 00:24:30",1757128,9.92,114.8,5.818,1.171,9.91,103.1155,7.253,8.43,27.45,0,110.1,13.34,8.03,76.8
"2010-03-13 00:25:00",1757129,9.09,114.8,6,1.313,10.3,103.1155,7.253,8.58,27.65,0,110.1,13.35,8.03,76.8
"2010-03-13 00:25:30",1757130,9.91,118.9,5.786,1.247,10.33,103.1155,7.253,8.5,27.57,0,110.1,13.34,8.03,80.9
"2010-03-13 00:26:00",1757131,9.54,116.2,5.689,1.333,10.39,103.1033,7.222,8.56,27.64,0,110.1,13.35,8.00,78.2
"2010-03-13 00:26:30",1757132,10.13,118,6.965,1.001,10.78,103.083,7.17,8.5,27.61,0,110.1,13.35,7.95,80.0
"2010-03-13 00:27:00",1757133,9.11,115.5,6.55,1.272,9.25,103.0816,7.166,8.41,27.61,0,110.1,13.35,7.94,77.5
"2010-03-13 00:27:30",1757134,9.5,117.5,6.505,1.322,9.99,103.0816,7.166,8.45,27.67,0,110.1,13.35,7.94,79.5
"2010-03-13 00:28:00",1757135,9.3,116.4,6.722,1.213,10.3,103.0816,7.166,8.49,27.73,0,110.1,13.35,7.94,78.4
"2010-03-13 00:28:30",1757136,9.92,116.1,5.897,1.013,11.01,103.0743,7.147,8.38,27.66,0,110.2,13.35,7.92,78.1
"2010-03-13 00:29:00",1757137,9.77,113.5,6.072,1.091,10.64,103.0599,7.111,8.44,27.83,0,110.1,13.35,7.89,75.5
"2010-03-13 00:29:30",1757138,9.43,115,6.631,1.228,10.16,103.0486,7.082,8.46,27.99,0,110.1,13.35,7.86,77.0
"2010-03-13 00:30:00",1757139,8.84,117.7,4.208,1.219,8.25,103.0483,7.081,8.21,27.86,0,110.1,13.35,7.86,79.7
"2010-03-13 00:30:30",1757140,9.44,123.6,7.698,1.162,9.85,103.048,7.08,8.39,28.13,0,110.1,13.36,7.86,85.6
"2010-03-13 00:31:00",1757141,9.25,123.9,6.791,1.095,10.62,103.0413,7.063,8.38,28.22,0,110.1,13.36,7.84,85.9
"2010-03-13 00:31:30",1757142,9.42,118.3,5.19,0.99,10.94,103.0199,7.008,8.4,28.32,0,110.1,13.36,7.79,80.3
"2010-03-13 00:32:00",1757143,9.72,122.5,5.942,1.112,11.13,103.0214,7.012,8.37,28.39,0,110.1,13.36,7.79,84.5
"2010-03-13 00:32:30",1757144,9.4,114.6,7.155,0.966,8.63,103.0238,7.018,8.31,28.33,0,110.1,13.36,7.80,76.6
"2010-03-13 00:33:00",1757145,9.86,116,6.357,1.311,9.22,103.0233,7.017,8.15,28.11,0,110.1,13.36,7.79,78.0
"2010-03-13 00:33:30",1757146,9.7,116.8,6.089,1.325,9.61,103.0104,6.984,8.33,28.38,0,110.1,13.36,7.76,78.8
"2010-03-13 00:34:00",1757147,10.29,117.9,6.077,1.131,10.77,102.9995,6.956,8.27,28.32,0,110.1,13.36,7.73,79.9
"2010-03-13 00:34:30",1757148,10.32,116.6,5.374,0.954,11.45,103.0012,6.961,8.33,28.33,0,110.1,13.36,7.74,78.6
"2010-03-13 00:35:00",1757149,10.58,120,5.421,0.994,11.32,103.0042,6.968,8.27,28.37,0,110.1,13.36,7.74,82.0
"2010-03-13 00:35:30",1757150,9.01,114.3,6.997,1.133,8.31,102.9941,6.942,8.14,28.23,0,110.1,13.36,7.72,76.3
"2010-03-13 00:36:00",1757151,8.34,110.6,4.508,0.845,8.16,102.9775,6.9,8.2,28.3,0,110.1,13.36,7.68,72.6
"2010-03-13 00:36:30",1757152,9.71,115.7,6.905,1.046,10.24,102.9784,6.902,8.04,28.14,0,110.1,13.36,7.68,77.7
"2010-03-13 00:37:00",1757153,9.73,113.9,6.599,1.34,10.64,102.9793,6.905,8.17,28.31,0,110.1,13.37,7.68,75.9
"2010-03-13 00:37:30",1757154,10.76,121.7,3.839,0.708,11.69,102.9807,6.908,8.22,28.38,0,110.1,13.37,7.68,83.7
"2010-03-13 00:38:00",1757155,10.57,116.6,4.966,0.619,11.86,102.9773,6.9,8.22,28.47,0,110.1,13.37,7.68,78.6
"2010-03-13 00:38:30",1757156,9.09,109.6,6.575,1.191,8.61,102.9661,6.871,7.991,28.29,0,110.1,13.37,7.65,71.6
"2010-03-13 00:39:00",1757157,8.55,111.4,5.716,0.901,8.07,102.9486,6.826,8.15,28.52,0,110.1,13.37,7.60,73.4
"2010-03-13 00:39:30",1757158,9.17,112.5,7.547,1.32,9.54,102.9469,6.822,7.993,28.37,0,110.1,13.36,7.60,74.5
"2010-03-13 00:40:00",1757159,9.63,113.1,6.664,1.169,10.98,102.9471,6.823,8.1,28.51,0,110.1,13.36,7.60,75.1
"2010-03-13 00:40:30",1757160,10.03,114.9,5.024,0.912,11.32,102.9471,6.823,8.18,28.65,0,110.1,13.36,7.60,76.9
"2010-03-13 00:41:00",1757161,9.95,116.9,2.757,0.88,11.53,102.9466,6.821,8.18,28.63,0,110.1,13.36,7.60,78.9
"2010-03-13 00:41:30",1757162,8.58,108.7,6.265,1.21,8.12,102.9373,6.797,7.86,28.37,0,110,13.36,7.57,70.7
"2010-03-13 00:42:00",1757163,8.27,107.5,4.939,0.993,7.713,102.9189,6.75,7.958,28.53,0,110.1,13.36,7.53,69.5
"2010-03-13 00:42:30",1757164,8.76,109.8,7.353,1.246,9.08,102.9133,6.736,7.946,28.55,0,110,13.36,7.51,71.8
"2010-03-13 00:43:00",1757165,9.6,112.8,5.078,1.03,11.31,102.9133,6.736,8.1,28.7,0,110,13.36,7.51,74.8
"2010-03-13 00:43:30",1757166,10.1,112.4,6.572,1.225,10.8,102.9133,6.736,8.05,28.69,0,110,13.37,7.51,74.4
"2010-03-13 00:44:00",1757167,10.18,118.3,5.32,1.073,10.98,102.9133,6.736,8.04,28.8,0,110,13.37,7.51,80.3
"2010-03-13 00:44:30",1757168,10.21,116.5,6.445,1.2,10.39,102.9028,6.709,7.97,28.81,0,110.1,13.37,7.48,78.5
"2010-03-13 00:45:00",1757169,9.37,111.6,6.518,1.314,8.94,102.8859,6.666,7.947,28.84,0,110.1,13.37,7.44,73.6
"2010-03-13 00:45:30",1757170,9.21,111.8,6.518,1.269,8.92,102.8794,6.649,7.823,28.77,0,110.1,13.37,7.42,73.8
"2010-03-13 00:46:00",1757171,9.06,113.6,7.979,1.204,9.62,102.8794,6.649,7.905,28.87,0,110.1,13.37,7.42,75.6
"2010-03-13 00:46:30",1757172,10.02,116.4,6.791,0.892,10.87,102.8794,6.649,7.934,28.99,0,110,13.37,7.42,78.4
"2010-03-13 00:47:00",1757173,9.67,119.8,6.979,1.056,10.49,102.8771,6.644,7.947,29.02,0,110,13.37,7.42,81.8
"2010-03-13 00:47:30",1757174,9.72,120.4,6.675,1.173,10.49,102.8537,6.584,7.925,29.11,0,110,13.38,7.36,82.4
"2010-03-13 00:48:00",1757175,9.26,114.7,7.294,1.107,9.99,102.8455,6.563,7.899,29.12,0,110,13.38,7.34,76.7
"2010-03-13 00:48:30",1757176,9.23,114.4,5.417,1.19,8.67,102.8455,6.563,7.719,29.03,0,110,13.38,7.34,76.4
"2010-03-13 00:49:00",1757177,9.5,120.1,6.593,1.136,10.86,102.8455,6.563,7.838,29.11,0,110,13.38,7.34,82.1
"2010-03-13 00:49:30",1757178,9.66,120.7,4.985,1.116,10.74,102.843,6.556,7.887,29.29,0,110,13.38,7.33,82.7
"2010-03-13 00:50:00",1757179,9.22,118.3,6.817,1.179,10.54,102.8303,6.524,7.856,29.2,0,110,13.38,7.30,80.3
"2010-03-13 00:50:30",1757180,9.27,121.3,5.922,1.127,10.15,102.8139,6.482,7.786,29.2,0,110,13.38,7.26,83.3
"2010-03-13 00:51:00",1757181,9.01,116.2,6.551,1.141,8.74,102.8134,6.481,7.677,29.21,0,110,13.38,7.26,78.2
"2010-03-13 00:51:30",1757182,9.81,117.6,6.923,1.214,9.37,102.814,6.482,7.781,29.34,0,110,13.38,7.26,79.6
"2010-03-13 00:52:00",1757183,9.99,120.2,5.836,1.124,10.62,102.8056,6.461,7.808,29.41,0,110,13.38,7.24,82.2
"2010-03-13 00:52:30",1757184,10.6,122.8,4.934,0.909,11.56,102.789,6.419,7.819,29.54,0,110,13.39,7.19,84.8
"2010-03-13 00:53:00",1757185,10.08,125.6,7.567,1.066,10.47,102.7897,6.42,7.726,29.43,0,110,13.39,7.19,87.6
"2010-03-13 00:53:30",1757186,9.69,128,5.778,1.064,10.28,102.7937,6.431,7.708,29.53,0,110,13.38,7.20,90.0
"2010-03-13 00:54:00",1757187,9.34,120.2,7.025,1.161,9.3,102.7882,6.416,7.592,29.47,0,110,13.38,7.19,82.2
"2010-03-13 00:54:30",1757188,9.68,124,5.718,1.084,10.66,102.768,6.365,7.695,29.63,0,110,13.38,7.14,86.0
"2010-03-13 00:55:00",1757189,9.32,122.4,6.638,1.132,10.17,102.7723,6.376,7.644,29.65,0,110,13.38,7.15,84.4
"2010-03-13 00:55:30",1757190,9.54,122.3,6.195,1.075,10.69,102.7738,6.38,7.681,29.71,0,110,13.39,7.15,84.3
"2010-03-13 00:56:00",1757191,9.64,125.9,6.307,1.126,10.32,102.7634,6.353,7.629,29.74,0,110,13.38,7.13,87.9
"2010-03-13 00:56:30",1757192,9.61,123.4,5.517,1.128,10.39,102.7428,6.3,7.582,29.74,0,110,13.38,7.07,85.4
"2010-03-13 00:57:00",1757193,9.61,124.6,6.549,1.318,9.83,102.7445,6.305,7.581,29.81,0,110,13.38,7.08,86.6
"2010-03-13 00:57:30",1757194,9.58,126.1,6.032,1.236,10.19,102.7445,6.305,7.59,29.84,0,110,13.38,7.08,88.1
"2010-03-13 00:58:00",1757195,9.01,122.3,6.749,1.285,9.48,102.7352,6.281,7.582,29.89,0,110,13.39,7.06,84.3
"2010-03-13 00:58:30",1757196,9.57,124.8,6.688,1.031,10.23,102.7135,6.225,7.527,29.87,0,110,13.38,7.00,86.8
"2010-03-13 00:59:00",1757197,9.67,122.5,5.897,1.072,10.36,102.7109,6.219,7.55,29.91,0,110,13.39,6.99,84.5
"2010-03-13 00:59:30",1757198,9.18,119.1,6.295,1.212,8.91,102.7109,6.219,7.445,29.88,0,110,13.39,6.99,81.1
"2010-03-13 01:00:00",1757199,9.75,119.7,6.26,1.228,9.71,102.7042,6.202,7.502,29.98,0,110,13.39,6.98,81.7
"2010-03-13 01:00:30",1757200,10.05,119.9,6.026,1.13,10.64,102.6799,6.14,7.495,30.08,0,110,13.39,6.91,81.9
"2010-03-13 01:01:00",1757201,9.75,117.4,5.508,1.217,10.56,102.677,6.132,7.49,30.11,0,110,13.39,6.91,79.4
"2010-03-13 01:01:30",1757202,9.9,119.7,5.922,1.091,10.43,102.677,6.132,7.402,30.06,0,110,13.39,6.91,81.7
"2010-03-13 01:02:00",1757203,9.38,115.6,6.454,1.206,9.35,102.6751,6.127,7.354,30.06,0,110,13.39,6.90,77.6
"2010-03-13 01:02:30",1757204,10.19,116.4,5.923,1.006,10.51,102.6663,6.105,7.382,30.15,0,110,13.4,6.88,78.4
"2010-03-13 01:03:00",1757205,10.08,115.3,6.506,1.118,10.42,102.6454,6.052,7.408,30.2,0,110,13.4,6.82,77.3
"2010-03-13 01:03:30",1757206,9.94,117.3,5.644,1.046,10.3,102.6432,6.046,7.303,30.13,0,110,13.4,6.82,79.3
"2010-03-13 01:04:00",1757207,9.49,116.2,6.419,1.246,9.69,102.6435,6.047,7.305,30.17,0,110,13.4,6.82,78.2
"2010-03-13 01:04:30",1757208,10.01,113.9,6.169,1.19,9.65,102.6432,6.046,7.293,30.2,0,110,13.4,6.82,75.9
"2010-03-13 01:05:00",1757209,9.03,115.8,6.294,1.256,9.93,102.6432,6.046,7.388,30.33,0,109.9,13.4,6.82,77.8
"2010-03-13 01:05:30",1757210,9.86,116.5,5.681,1.165,10.3,102.6293,6.011,7.33,30.29,0,110,13.4,6.78,78.5
"2010-03-13 01:06:00",1757211,9.94,111.1,6.808,1.101,10.17,102.6124,5.967,7.315,30.31,0,110,13.4,6.74,73.1
"2010-03-13 01:06:30",1757212,10.46,111.7,5.772,1.165,10.52,102.6104,5.962,7.293,30.32,0,110,13.4,6.74,73.7
"2010-03-13 01:07:00",1757213,10.31,110.6,6.187,1.064,10.77,102.6125,5.967,7.245,30.31,0,110,13.4,6.74,72.6
"2010-03-13 01:07:30",1757214,9.42,108.2,7.056,1.195,9.94,102.6165,5.978,7.26,30.33,0,110,13.4,6.75,70.2
"2010-03-13 01:08:00",1757215,9.68,110.3,6.052,1.106,10.13,102.6203,5.987,7.262,30.33,0,110,13.4,6.76,72.3
"2010-03-13 01:08:30",1757216,10.15,114.1,6.601,1.074,10.16,102.6232,5.995,7.227,30.34,0,110,13.4,6.77,76.1
"2010-03-13 01:09:00",1757217,9.51,110.7,7.129,1.269,9.4,102.6227,5.994,7.152,30.29,0,110,13.41,6.77,72.7
"2010-03-13 01:09:30",1757218,9.56,116.1,6.122,1.288,9.99,102.6215,5.99,7.266,30.41,0,110,13.41,6.76,78.1
"2010-03-13 01:10:00",1757219,9.68,116.8,6.634,1.305,10.2,102.617,5.979,7.258,30.52,0,109.9,13.41,6.75,78.8
"2010-03-13 01:10:30",1757220,9.48,119.3,6.362,1.189,10.5,102.6097,5.96,7.22,30.46,0,109.9,13.41,6.73,81.3
"2010-03-13 01:11:00",1757221,9.12,118.2,6.853,1.23,9.36,102.6058,5.95,7.184,30.5,0,109.9,13.41,6.72,80.2
"2010-03-13 01:11:30",1757222,9.27,116.1,6.236,1.247,9.98,102.6067,5.953,7.211,30.54,0,109.9,13.41,6.73,78.1
"2010-03-13 01:12:00",1757223,9.18,118.3,7.247,1.14,8.93,102.6093,5.959,7.115,30.49,0,109.9,13.41,6.73,80.3
"2010-03-13 01:12:30",1757224,9.1,118.8,7.901,1.367,9.36,102.609,5.959,7.171,30.62,0,109.9,13.4,6.73,80.8
"2010-03-13 01:13:00",1757225,9.59,121.1,5.448,1.106,10.51,102.6042,5.946,7.141,30.62,0,109.9,13.4,6.72,83.1
"2010-03-13 01:13:30",1757226,9.87,119.6,5.472,1.195,10.24,102.5932,5.918,7.177,30.74,0,109.9,13.4,6.69,81.6
"2010-03-13 01:14:00",1757227,9.54,119,5.898,1.103,9.99,102.5794,5.883,7.172,30.78,0,109.9,13.4,6.66,81.0
"2010-03-13 01:14:30",1757228,9.29,116.3,5.697,1.27,8.94,102.5763,5.875,7.027,30.68,0,109.9,13.4,6.65,78.3
"2010-03-13 01:15:00",1757229,9.75,116.9,6.129,1.202,10.13,102.5763,5.875,7.141,30.76,0,109.9,13.4,6.65,78.9
"2010-03-13 01:15:30",1757230,10.11,119.1,6.157,1.134,10.41,102.5763,5.875,7.14,30.77,0,109.9,13.4,6.65,81.1
"2010-03-13 01:16:00",1757231,10.03,122,6.188,1.146,10.2,102.5763,5.875,7.132,30.76,0,109.9,13.41,6.65,84.0
"2010-03-13 01:16:30",1757232,9.5,122.4,6.056,1.271,9.41,102.5743,5.87,7.058,30.78,0,109.9,13.41,6.64,84.4
"2010-03-13 01:17:00",1757233,9.25,120.9,6.06,1.362,8.98,102.5655,5.848,7.048,30.78,0,109.9,13.41,6.62,82.9
"2010-03-13 01:17:30",1757234,9.39,125.1,6.621,1.342,9.66,102.5551,5.821,7.101,30.84,0,109.9,13.41,6.59,87.1
"2010-03-13 01:18:00",1757235,9.63,124.6,6.687,1.169,9.99,102.5458,5.797,7.101,30.83,0,109.9,13.41,6.57,86.6
"2010-03-13 01:18:30",1757236,9.55,127.1,6.307,1.244,10.11,102.5424,5.788,7.077,30.82,0,109.9,13.41,6.56,89.1
"2010-03-13 01:19:00",1757237,9.77,125.7,6.173,1.096,10.38,102.5424,5.788,7.04,30.87,0,109.9,13.41,6.56,87.7
"2010-03-13 01:19:30",1757238,9.47,123.3,6.509,1.168,9.77,102.5424,5.788,7.088,30.91,0,109.9,13.42,6.56,85.3
"2010-03-13 01:20:00",1757239,8.22,118,4.004,0.828,7.07,102.5418,5.787,6.947,30.93,0,109.9,13.42,6.56,80.0
"2010-03-13 01:20:30",1757240,9.84,124.6,5.886,1.103,10.42,102.5381,5.778,7.022,31.11,0,109.9,13.42,6.55,86.6
"2010-03-13 01:21:00",1757241,10.19,125.4,5.629,1.108,10.36,102.5302,5.757,7.029,31.12,0,109.9,13.42,6.53,87.4
"2010-03-13 01:21:30",1757242,10.69,123.4,3.569,0.725,11.14,102.5181,5.726,7.071,31.1,0,109.9,13.42,6.50,85.4
"2010-03-13 01:22:00",1757243,10.1,119.2,5.745,1.079,10.14,102.5111,5.708,7.012,31.06,0,109.9,13.42,6.48,81.2
"2010-03-13 01:22:30",1757244,9.76,114.3,6.465,1.189,9.29,102.5157,5.72,6.953,31.01,0,109.9,13.42,6.49,76.3
"2010-03-13 01:23:00",1757245,9.68,114.3,6.483,1.098,8.75,102.5172,5.724,6.937,31.07,0,109.9,13.42,6.50,76.3
"2010-03-13 01:23:30",1757246,10.55,115.9,5.779,1.056,10.15,102.5215,5.735,6.97,31,0,109.9,13.42,6.51,77.9
"2010-03-13 01:24:00",1757247,10.72,118,4.978,0.944,10.89,102.5212,5.734,7.044,31.05,0,109.9,13.42,6.51,80.0
"2010-03-13 01:24:30",1757248,10.95,119.8,4.674,0.407,11.11,102.5221,5.737,7.041,31.15,0,109.9,13.43,6.51,81.8
"2010-03-13 01:25:00",1757249,10.33,114.1,6.2,1.064,10.05,102.5165,5.722,6.948,31.08,0,109.9,13.42,6.49,76.1
"2010-03-13 01:25:30",1757250,10.36,115.9,5.141,1.039,9.81,102.5146,5.718,6.876,31.01,0,109.9,13.42,6.49,77.9
"2010-03-13 01:26:00",1757251,8.96,109.4,5.699,0.999,7.728,102.5079,5.7,6.832,31.01,0,109.9,13.43,6.47,71.4
"2010-03-13 01:26:30",1757252,10.3,118.4,5.398,1.053,10.05,102.5015,5.684,6.951,31.26,0,109.9,13.43,6.46,80.4
"2010-03-13 01:27:00",1757253,10.76,122.7,3.937,0.774,11.03,102.5044,5.691,6.978,31.44,0,109.9,13.43,6.46,84.7
"2010-03-13 01:27:30",1757254,10.7,120.4,4.762,0.575,11.25,102.5079,5.7,6.995,31.44,0,109.9,13.43,6.47,82.4
"2010-03-13 01:28:00",1757255,10.33,118.2,5.119,1.126,10.09,102.5079,5.7,6.901,31.26,0,109.9,13.43,6.47,80.2
"2010-03-13 01:28:30",1757256,9.84,113.6,6.086,1.237,8.42,102.5084,5.702,6.839,31.15,0,109.9,13.42,6.47,75.6
"2010-03-13 01:29:00",1757257,9.7,113.3,6.323,1.256,8.83,102.5093,5.704,6.775,31.12,0,109.9,13.42,6.48,75.3
"2010-03-13 01:29:30",1757258,10.06,115.5,6.024,1.13,10.21,102.5082,5.701,6.895,31.1,0,109.9,13.42,6.47,77.5
"2010-03-13 01:30:00",1757259,10.68,120.5,2.084,0.696,10.94,102.502,5.685,6.979,31.29,0,109.9,13.42,6.46,82.5
"2010-03-13 01:30:30",1757260,10.4,121.9,2.953,0.816,10.99,102.4969,5.672,6.957,31.31,0,109.9,13.42,6.44,83.9
"2010-03-13 01:31:00",1757261,9.67,118.9,6.845,1.171,8.93,102.491,5.657,6.813,31.2,0,109.9,13.42,6.43,80.9
"2010-03-13 01:31:30",1757262,9.34,117.2,5.795,1.193,8.52,102.4822,5.635,6.8,31.18,0,109.9,13.42,6.41,79.2
"2010-03-13 01:32:00",1757263,9.35,116.4,6.12,1.251,8.92,102.4757,5.618,6.822,31.31,0,109.9,13.42,6.39,78.4
"2010-03-13 01:32:30",1757264,10.05,118.8,6.762,1.108,10.16,102.4754,5.617,6.884,31.4,0,109.9,13.42,6.39,80.8
"2010-03-13 01:33:00",1757265,10.24,124.7,2.66,0.813,10.91,102.4754,5.617,6.933,31.45,0,109.9,13.43,6.39,86.7
"2010-03-13 01:33:30",1757266,10.02,127.4,3.475,0.801,10.78,102.4754,5.617,6.915,31.59,0,109.9,13.43,6.39,89.4
"2010-03-13 01:34:00",1757267,8.51,116.9,6.039,1.136,8.13,102.4754,5.617,6.796,31.41,0,109.9,13.43,6.39,78.9
"2010-03-13 01:34:30",1757268,9.16,119.2,6.925,1.21,8.94,102.4754,5.617,6.706,31.27,0,109.9,13.43,6.39,81.2
"2010-03-13 01:35:00",1757269,9.14,119.2,6.558,1.295,9.26,102.4754,5.617,6.807,31.37,0,109.9,13.43,6.39,81.2
"2010-03-13 01:35:30",1757270,9.55,121.7,5.629,1.084,10.55,102.4751,5.617,6.816,31.37,0,109.9,13.43,6.39,83.7
"2010-03-13 01:36:00",1757271,9.36,119.8,5.292,1.04,10.57,102.4712,5.607,6.867,31.44,0,109.9,13.43,6.38,81.8
"2010-03-13 01:36:30",1757272,10.1,120.6,3.761,0.774,10.98,102.4664,5.594,6.878,31.49,0,109.9,13.43,6.37,82.6
"2010-03-13 01:37:00",1757273,9.76,121.9,4.301,0.911,10.79,102.4604,5.579,6.904,31.48,0,109.9,13.43,6.35,83.9
"2010-03-13 01:37:30",1757274,9.01,116.6,6.545,1.253,8.65,102.4562,5.568,6.679,31.28,0,109.9,13.43,6.34,78.6
"2010-03-13 01:38:00",1757275,8.02,114.7,5.399,1.167,7.716,102.4483,5.548,6.713,31.32,0,109.9,13.43,6.32,76.7
"2010-03-13 01:38:30",1757276,7.906,113.2,4.726,0.947,7.392,102.4418,5.531,6.656,31.29,0,109.9,13.44,6.30,75.2
"2010-03-13 01:39:00",1757277,9.66,123.7,4.203,0.869,11.02,102.4415,5.531,6.879,31.5,0,109.9,13.44,6.30,85.7
"2010-03-13 01:39:30",1757278,9.54,127.9,3.992,0.571,11.04,102.4415,5.531,6.876,31.51,0,109.9,13.44,6.30,89.9
"2010-03-13 01:40:00",1757279,9.43,127.4,4.397,0.692,10.85,102.4415,5.531,6.807,31.5,0,109.9,13.44,6.30,89.4
"2010-03-13 01:40:30",1757280,8.52,123.2,6.854,1.213,8.6,102.4415,5.531,6.783,31.53,0,109.9,13.44,6.30,85.2
"2010-03-13 01:41:00",1757281,8.87,123.5,6.451,1.269,9.03,102.4415,5.531,6.624,31.38,0,109.9,13.44,6.30,85.5
"2010-03-13 01:41:30",1757282,8.34,121.7,6.532,1.294,8.2,102.4415,5.531,6.674,31.44,0,109.9,13.44,6.30,83.7
"2010-03-13 01:42:00",1757283,8.91,126.8,5.809,1.107,10.19,102.4412,5.53,6.777,31.58,0,109.9,13.44,6.30,88.8
"2010-03-13 01:42:30",1757284,8.85,129.1,5.684,1.198,10.1,102.4361,5.517,6.828,31.64,0,109.9,13.44,6.29,91.1
"2010-03-13 01:43:00",1757285,8.64,129.5,5.957,1.061,9.31,102.4285,5.498,6.728,31.57,0,109.9,13.44,6.27,91.5
"2010-03-13 01:43:30",1757286,8.82,131.1,6.535,1.156,9.7,102.4141,5.461,6.769,31.62,0,109.9,13.44,6.23,93.1
"2010-03-13 01:44:00",1757287,9.11,127.7,6.265,1.196,9.97,102.4084,5.446,6.769,31.63,0,109.9,13.44,6.22,89.7
"2010-03-13 01:44:30",1757288,8.71,128.1,5.397,1.104,9.96,102.4076,5.444,6.742,31.66,0,109.9,13.44,6.22,90.1
"2010-03-13 01:45:00",1757289,8.85,127,5.703,1.105,9.9,102.4076,5.444,6.71,31.68,0,109.9,13.44,6.22,89.0
"2010-03-13 01:45:30",1757290,8.28,120.4,6.402,1.179,8.25,102.4076,5.444,6.653,31.66,0,109.9,13.44,6.22,82.4
"2010-03-13 01:46:00",1757291,9.59,124.9,5.507,1.007,9.81,102.4076,5.444,6.722,31.72,0,109.9,13.44,6.22,86.9
"2010-03-13 01:46:30",1757292,9.54,123.6,5.394,1.214,9.77,102.4079,5.445,6.689,31.72,0,109.9,13.44,6.22,85.6
"2010-03-13 01:47:00",1757293,9.96,125.2,5.158,1.018,10.55,102.4076,5.444,6.746,31.8,0,109.9,13.44,6.22,87.2
"2010-03-13 01:47:30",1757294,9.65,127,5.689,1.107,9.98,102.4082,5.446,6.732,31.75,0,109.9,13.44,6.22,89.0
"2010-03-13 01:48:00",1757295,9.42,127.2,6.356,1.201,9.29,102.4059,5.44,6.701,31.8,0,109.9,13.44,6.21,89.2
"2010-03-13 01:48:30",1757296,9.34,128.2,5.705,1.114,9.95,102.4057,5.439,6.604,31.8,0,109.9,13.44,6.21,90.2
"2010-03-13 01:49:00",1757297,8.91,130.1,5.938,1.189,9.54,102.4024,5.431,6.711,31.95,0,109.9,13.44,6.20,92.1
"2010-03-13 01:49:30",1757298,9.29,129.8,5.428,1.014,10.2,102.3987,5.421,6.664,31.92,0,109.9,13.44,6.19,91.8
"2010-03-13 01:50:00",1757299,9.49,132.6,2.88,0.785,11.2,102.3961,5.415,6.75,32.02,0,109.9,13.44,6.19,94.6
"2010-03-13 01:50:30",1757300,8.8,127.8,5.698,1.068,10.03,102.3974,5.418,6.679,31.96,0,109.9,13.45,6.19,89.8